Starlink 11233

operational
NORAD ID: 61061 Int'l Des: 2024-164 Owner: SPXS Country: US Constellation: starlink
LEOCIRCULAR

Über Starlink 11233

Beschreibung wird geladen...

Live-Position

3D-Globus wird geladen...

Nächste Überflüge

Höhenverlauf

Altitude vs Time

uPlot chart will show altitude changes over time

Zweizeiliger Elementsatz

1 61061U 24164M 25258.83159667 .00002575 00000-0 26074-4 0 9990
2 61061 53.1586 93.3882 0000924 80.9052 279.2071 15.69736712 57957
Epoch: 15. Sept. 2025 • Age: 24 hours

Aktueller Status

Höhe 361.4 km
Geschwindigkeit 7.69 km/s
Subsatellitenpunkt -5.20°S, 142.76°E
Startdatum 13. Sept. 2024
Alter 1 years
Typ internet

Technische Details

Klassifizierung Payload
Masse 960.00 kg
Trockenmasse 910.00 kg
Gesamtmasse 960.00 kg
Länge 0.30 m
Durchmesser 4.10 m
Spannweite 29.00 m
Form Box + pan
Hersteller SPXS
Bus-Typ Starlink V2MD
Phasenstatus In Orbit
Besitzer/Staat SPXS/US

Große Konstellationen

Loading constellations...